Simultaneous Nadir Overpasses (SNOs) Predictions

Prediction of SNOs between GOES-14 and NPP Satellite Orbit:

Table of predicted SNOs for the next 14.0 days since TLE Epoch: 10/23/2021
Index Date Time (GOES-14) GOES-14 Lat,Lon NPP Lat,Lon Distance(km) Time Diff (sec)
1 10/23/2021 20:28:10 -0.22,-104.18 -0.63,-105.90 196.41 80
2 10/24/2021 20:12:08 -0.23,-104.19 0.42,-101.38 320.78 80
3 10/26/2021 08:33:58 0.20,-104.31 0.75,-106.66 268.53 80
4 10/27/2021 08:12:34 0.22,-104.29 -0.24,-102.13 246.19 80
5 10/28/2021 20:34:33 -0.19,-104.16 -0.95,-107.44 374.37 80
6 10/29/2021 20:18:30 -0.19,-104.17 0.11,-102.92 142.68 80
7 10/31/2021 08:40:20 0.16,-104.32 1.06,-108.20 442.46 80
8 11/01/2021 08:18:57 0.18,-104.31 0.06,-103.67 72.53 80
9 11/03/2021 20:22:12 -0.17,-104.15 -0.25,-104.45 34.49 80
10 11/04/2021 20:06:08 -0.18,-104.15 0.75, -99.92 482.62 80
